M I D A S
Marine Information and Data Acquisition System
Tripno 842 of the Zeeleeuw from 2005-01-26 07:33:00 to 2005-01-26 13:04:23
Back to CruiseResearch ActivitiesStationsMapUnderway DataData graphs

EquipmentUnitsComments
TimeDGPSUTC
LatitudeDGPSDM.mWGS84
LongitudeDGPSDM.mWGS84
SpeedMeteo Stationm/sRelative wind speed
DirectionMeteo StationdegRelative wind direction
TemperatureMeteo Stationdeg CelciusAir temperature
PressureMeteo StationPaAtmospheric pressure
HumidityMeteo Station%Relative humidity
Missing or incorrect values are displayed as -999
Metereological data collected by the RV Zeeleeuw from 2005-01-26 07:33:28 to 2005-01-26 13:19:32
                                                                                    Next 1000 lines
Time Latitude Longitude Speed Direction Temperature Pressure Humidity
2005-01-26 07:33:38 51°13.595 2°56.098 5.5 290 -0.3 103140 66
2005-01-26 07:33:43 51°13.596 2°56.094 8.2 275 -0.3 103150 66
2005-01-26 07:33:48 51°13.598 2°56.09 6.8 279 -0.3 103150 66
2005-01-26 07:33:53 51°13.599 2°56.086 5.8 300 -0.3 103140 66
2005-01-26 07:33:58 51°13.6 2°56.082 4 298 -0.3 103140 66
2005-01-26 07:34:03 51°13.601 2°56.077 5.2 293 -0.3 103140 66
2005-01-26 07:34:08 51°13.603 2°56.072 4.7 293 -0.3 103140 66
2005-01-26 07:34:13 51°13.604 2°56.067 6.8 280 -0.3 103140 66
2005-01-26 07:34:18 51°13.606 2°56.062 5.7 281 -0.3 103140 66
2005-01-26 07:34:23 51°13.607 2°56.056 4 278 -0.3 103140 66
2005-01-26 07:34:28 51°13.609 2°56.05 5 297 -0.3 103140 66
2005-01-26 07:34:32 51°13.61 2°56.045 4.8 260 -0.3 103160 66
2005-01-26 07:34:38 51°13.612 2°56.037 7.8 286 -0.3 103160 66
2005-01-26 07:34:43 51°13.615 2°56.031 6.2 280 -0.2 103150 66
2005-01-26 07:34:48 51°13.617 2°56.024 4.8 269 -0.2 103150 66
2005-01-26 07:34:52 51°13.619 2°56.019 3.4 253 -0.3 103140 66
2005-01-26 07:34:58 51°13.623 2°56.01 5.2 264 -0.3 103140 66
2005-01-26 07:35:03 51°13.625 2°56.003 5.8 265 -0.3 103140 66
2005-01-26 07:35:08 51°13.628 2°55.996 7.9 274 -0.3 103140 66
2005-01-26 07:35:13 51°13.632 2°55.989 5.7 262 -0.3 103150 66
2005-01-26 07:35:18 51°13.634 2°55.983 5.6 271 -0.3 103150 66
2005-01-26 07:35:23 51°13.637 2°55.978 5.9 274 -0.2 103150 66
2005-01-26 07:35:28 51°13.639 2°55.974 7 278 -0.2 103150 66
2005-01-26 07:35:32 51°13.639 2°55.972 7.2 293 -0.2 103150 66
2005-01-26 07:35:38 51°13.64 2°55.97 6 299 -0.2 103150 66
2005-01-26 07:35:43 51°13.641 2°55.967 5.5 264 -0.2 103140 66
2005-01-26 07:35:48 51°13.643 2°55.965 5.6 294 -0.2 103140 66
2005-01-26 07:35:52 51°13.644 2°55.962 5.2 283 -0.3 103140 66
2005-01-26 07:35:58 51°13.646 2°55.959 6.1 289 -0.3 103140 66
2005-01-26 07:36:03 51°13.647 2°55.958 5.1 298 -0.2 103140 66
2005-01-26 07:36:08 51°13.646 2°55.959 3.3 303 -0.2 103140 66
2005-01-26 07:36:13 51°13.645 2°55.961 3.3 295 -0.2 103150 66
2005-01-26 07:36:18 51°13.644 2°55.964 2.9 297 -0.2 103150 66
2005-01-26 07:36:23 51°13.643 2°55.966 5 282 -0.2 103130 66
2005-01-26 07:36:27 51°13.642 2°55.967 6.3 302 -0.2 103130 66
2005-01-26 07:36:33 51°13.642 2°55.968 6 290 -0.2 103130 66
2005-01-26 07:36:38 51°13.642 2°55.967 5.4 307 -0.2 103130 66
2005-01-26 07:36:43 51°13.643 2°55.965 4.8 295 -0.2 103140 66
2005-01-26 07:36:47 51°13.644 2°55.963 6.1 298 -0.2 103140 66
2005-01-26 07:36:53 51°13.645 2°55.959 6.2 296 -0.2 103140 66
2005-01-26 07:36:58 51°13.647 2°55.954 6.9 304 -0.2 103140 66
2005-01-26 07:37:03 51°13.649 2°55.949 4.1 307 -0.2 103150 66
2005-01-26 07:37:08 51°13.651 2°55.944 3.4 285 -0.2 103150 66
2005-01-26 07:37:13 51°13.654 2°55.938 2.4 210 -0.2 103140 66
2005-01-26 07:37:19 51°13.658 2°55.931 2.8 269 -0.2 103140 66
2005-01-26 07:37:23 51°13.661 2°55.925 4.6 268 -0.2 103140 66
2005-01-26 07:37:28 51°13.665 2°55.917 4.4 271 -0.2 103140 66
2005-01-26 07:37:33 51°13.669 2°55.91 3.2 220 -0.2 103150 66
2005-01-26 07:37:38 51°13.674 2°55.901 7.2 234 -0.2 103150 66
2005-01-26 07:37:43 51°13.678 2°55.892 5 261 -0.2 103140 66
2005-01-26 07:37:48 51°13.682 2°55.882 6.5 284 -0.2 103140 66
2005-01-26 07:37:53 51°13.686 2°55.873 7.1 275 -0.2 103130 66
2005-01-26 07:37:58 51°13.691 2°55.862 4.6 239 -0.2 103130 66
2005-01-26 07:38:03 51°13.694 2°55.853 2.4 258 -0.2 103140 66
2005-01-26 07:38:08 51°13.698 2°55.841 2.2 244 -0.2 103140 66
2005-01-26 07:38:13 51°13.701 2°55.831 3.6 207 -0.2 103130 66
2005-01-26 07:38:19 51°13.704 2°55.818 2.4 243 -0.2 103130 66
2005-01-26 07:38:23 51°13.707 2°55.808 6.2 271 -0.2 103140 66
2005-01-26 07:38:28 51°13.709 2°55.796 4.3 306 -0.2 103140 66
2005-01-26 07:38:33 51°13.711 2°55.784 2.3 40 -0.2 103130 66
2005-01-26 07:38:39 51°13.712 2°55.772 3.1 283 -0.2 103130 66
2005-01-26 07:38:43 51°13.713 2°55.762 2.9 329 -0.2 103150 66
2005-01-26 07:38:48 51°13.714 2°55.75 2.6 323 -0.2 103150 66
2005-01-26 07:38:53 51°13.715 2°55.74 4.7 346 -0.2 103150 66
2005-01-26 07:38:58 51°13.715 2°55.729 5.1 304 -0.2 103150 66
2005-01-26 07:39:03 51°13.715 2°55.722 3.9 291 -0.2 103140 66
2005-01-26 07:39:07 51°13.716 2°55.718 4.8 345 -0.2 103140 66
2005-01-26 07:39:13 51°13.716 2°55.716 4.3 337 -0.2 103140 66
2005-01-26 07:39:18 51°13.717 2°55.716 4.4 325 -0.2 103140 66
2005-01-26 07:39:23 51°13.718 2°55.718 6.8 2 -0.2 103150 66
2005-01-26 07:39:28 51°13.72 2°55.72 7.2 17 -0.2 103150 66
2005-01-26 07:39:32 51°13.722 2°55.723 4.2 14 -0.2 103100 66
2005-01-26 07:39:38 51°13.726 2°55.726 3.5 32 -0.2 103100 66
2005-01-26 07:39:43 51°13.73 2°55.728 4.3 31 -0.2 103090 66
2005-01-26 07:39:47 51°13.732 2°55.729 4 27 -0.2 103090 66
2005-01-26 07:39:53 51°13.734 2°55.73 3 55 -0.2 103110 66
2005-01-26 07:39:58 51°13.736 2°55.73 5 47 -0.2 103110 66
2005-01-26 07:40:03 51°13.736 2°55.73 6.2 52 -0.2 103110 66
2005-01-26 07:40:08 51°13.735 2°55.729 4.3 87 -0.2 103110 66
2005-01-26 07:40:13 51°13.734 2°55.729 2.9 53 -0.2 103110 66
2005-01-26 07:40:18 51°13.732 2°55.728 6.2 58 -0.2 103110 66
2005-01-26 07:40:23 51°13.73 2°55.728 4.7 53 -0.2 103100 66
2005-01-26 07:40:28 51°13.729 2°55.728 4.6 97 -0.2 103100 66
2005-01-26 07:40:33 51°13.729 2°55.727 6.1 55 -0.2 103100 66
2005-01-26 07:40:38 51°13.73 2°55.727 8.5 55 -0.2 103100 66
2005-01-26 07:40:43 51°13.731 2°55.726 5.6 57 -0.2 103120 66
2005-01-26 07:40:48 51°13.734 2°55.724 5.3 59 -0.2 103120 66
2005-01-26 07:40:53 51°13.737 2°55.721 5.6 63 -0.2 103130 66
2005-01-26 07:40:58 51°13.741 2°55.717 3 72 -0.2 103130 66
2005-01-26 07:41:03 51°13.746 2°55.712 2.6 66 -0.2 103110 66
2005-01-26 07:41:08 51°13.751 2°55.706 4.4 59 -0.2 103110 66
2005-01-26 07:41:13 51°13.757 2°55.7 4.2 52 -0.1 103100 66
2005-01-26 07:41:18 51°13.763 2°55.693 3.2 20 -0.1 103100 66
2005-01-26 07:41:23 51°13.77 2°55.686 4 26 -0.1 103110 66
2005-01-26 07:41:28 51°13.778 2°55.677 6.6 33 -0.1 103110 66
2005-01-26 07:41:33 51°13.785 2°55.67 6.2 33 -0.1 103110 66
2005-01-26 07:41:38 51°13.793 2°55.661 4.7 44 -0.1 103110 66
2005-01-26 07:41:43 51°13.801 2°55.653 7.1 41 -0.1 103130 66
2005-01-26 07:41:48 51°13.811 2°55.644 4.8 27 -0.1 103130 66
2005-01-26 07:41:52 51°13.818 2°55.637 5.7 38 -0.1 103120 66
2005-01-26 07:41:58 51°13.829 2°55.627 9.6 43 -0.1 103120 66
2005-01-26 07:42:03 51°13.838 2°55.62 10.1 50 -0.1 103120 66
2005-01-26 07:42:08 51°13.849 2°55.611 9.1 47 -0.1 103120 66
2005-01-26 07:42:12 51°13.857 2°55.605 10.1 60 -0.1 103120 66
2005-01-26 07:42:18 51°13.868 2°55.596 10.3 48 -0.1 103120 66
2005-01-26 07:42:23 51°13.878 2°55.588 7.8 47 -0.1 103110 66
2005-01-26 07:42:28 51°13.89 2°55.58 6.8 41 -0.1 103110 66
2005-01-26 07:42:33 51°13.899 2°55.573 8 45 -0.1 103100 66
2005-01-26 07:42:38 51°13.911 2°55.565 8.3 43 -0.1 103100 66
2005-01-26 07:42:43 51°13.921 2°55.557 7.8 44 -0.1 103100 66
2005-01-26 07:42:48 51°13.933 2°55.549 9.7 44 -0.1 103100 66
2005-01-26 07:42:53 51°13.943 2°55.542 8.4 96 -0.1 103110 67
2005-01-26 07:42:58 51°13.954 2°55.534 8.7 67 -0.1 103110 67
2005-01-26 07:43:03 51°13.965 2°55.526 8.5 42 -0.1 103110 67
2005-01-26 07:43:07 51°13.975 2°55.519 6.8 58 -0.1 103110 67
2005-01-26 07:43:12 51°13.986 2°55.511 10.3 56 -0.1 103110 66
2005-01-26 07:43:18 51°13.999 2°55.502 6 73 -0.1 103110 66
2005-01-26 07:43:23 51°14.009 2°55.495 6.3 49 -0.1 103100 66
2005-01-26 07:43:27 51°14.018 2°55.488 9.4 55 -0.1 103100 66
2005-01-26 07:43:32 51°14.031 2°55.48 10.3 45 -0.1 103110 67
2005-01-26 07:43:38 51°14.043 2°55.471 12.3 45 -0.1 103110 67
2005-01-26 07:43:43 51°14.054 2°55.463 10.8 42 -999 103110 67
2005-01-26 07:43:48 51°14.067 2°55.454 10.2 64 -999 103110 67
2005-01-26 07:43:52 51°14.077 2°55.448 10.9 66 -999 103110 67
2005-01-26 07:43:58 51°14.091 2°55.438 10.5 45 -999 103110 67
2005-01-26 07:44:03 51°14.103 2°55.429 10.7 62 -999 103130 66
2005-01-26 07:44:08 51°14.115 2°55.42 11.6 83 -999 103130 66
2005-01-26 07:44:12 51°14.125 2°55.413 10.5 59 -999 103090 66
2005-01-26 07:44:18 51°14.14 2°55.401 8.4 69 -999 103090 66
2005-01-26 07:44:23 51°14.151 2°55.392 12.8 59 -999 103100 66
2005-01-26 07:44:28 51°14.164 2°55.38 8.8 55 -999 103100 66
2005-01-26 07:44:33 51°14.175 2°55.369 10.6 62 -999 103100 66
2005-01-26 07:44:38 51°14.186 2°55.357 11.8 63 -999 103100 66
2005-01-26 07:44:43 51°14.197 2°55.343 8.3 66 -999 103090 66
2005-01-26 07:44:47 51°14.207 2°55.331 12.1 81 -999 103090 66
2005-01-26 07:44:52 51°14.217 2°55.316 9.1 63 -999 103100 67
2005-01-26 07:44:58 51°14.231 2°55.299 11.2 76 -999 103100 67
2005-01-26 07:45:03 51°14.24 2°55.286 13.2 78 -999 103090 68
2005-01-26 07:45:08 51°14.252 2°55.269 8.4 67 -999 103090 68
2005-01-26 07:45:12 51°14.26 2°55.257 9.7 65 -999 103090 68
2005-01-26 07:45:18 51°14.271 2°55.239 9.5 68 -999 103090 68
2005-01-26 07:45:23 51°14.281 2°55.222 8.1 86 0.1 103130 69
2005-01-26 07:45:28 51°14.292 2°55.204 10.7 77 0.1 103130 69
2005-01-26 07:45:32 51°14.3 2°55.19 9.7 79 0.1 103090 70
2005-01-26 07:45:38 51°14.311 2°55.169 12.3 83 0.1 103090 70
2005-01-26 07:45:43 51°14.32 2°55.153 10.3 79 0.2 103100 71
2005-01-26 07:45:48 51°14.33 2°55.134 9.3 83 0.2 103100 71
2005-01-26 07:45:52 51°14.337 2°55.12 9.4 83 0.3 103090 70
2005-01-26 07:45:58 51°14.347 2°55.099 7 31 0.3 103090 70
2005-01-26 07:46:03 51°14.357 2°55.08 8.4 91 0.3 103090 71
2005-01-26 07:46:08 51°14.365 2°55.061 10 88 0.3 103090 71
2005-01-26 07:46:12 51°14.372 2°55.045 13.8 93 0.4 103090 70
2005-01-26 07:46:18 51°14.381 2°55.021 13.7 99 0.4 103090 70
2005-01-26 07:46:23 51°14.387 2°55.001 12.9 97 0.4 103090 70
2005-01-26 07:46:28 51°14.394 2°54.977 13.8 97 0.4 103090 70
2005-01-26 07:46:33 51°14.4 2°54.956 13.8 102 0.5 103100 70
2005-01-26 07:46:38 51°14.407 2°54.932 13.8 104 0.5 103100 70
2005-01-26 07:46:43 51°14.413 2°54.911 12.7 105 0.5 103070 69
2005-01-26 07:46:48 51°14.419 2°54.888 13.2 101 0.5 103070 69
2005-01-26 07:46:52 51°14.424 2°54.865 11.6 102 0.5 103060 70
2005-01-26 07:46:58 51°14.43 2°54.836 11.5 102 0.5 103060 70
2005-01-26 07:47:03 51°14.434 2°54.809 12.3 109 0.6 103060 70
2005-01-26 07:47:07 51°14.436 2°54.792 11.3 109 0.6 103060 70
2005-01-26 07:47:13 51°14.442 2°54.759 12.3 98 0.6 103070 70
2005-01-26 07:47:18 51°14.447 2°54.73 13.1 112 0.6 103070 70
2005-01-26 07:47:23 51°14.449 2°54.705 13.7 107 0.6 103080 70
2005-01-26 07:47:28 51°14.452 2°54.677 14.7 114 0.6 103080 70
2005-01-26 07:47:33 51°14.455 2°54.649 12.7 115 0.7 103080 71
2005-01-26 07:47:38 51°14.456 2°54.621 11.6 117 0.7 103080 71
2005-01-26 07:47:43 51°14.457 2°54.591 11.4 115 0.7 103070 70
2005-01-26 07:47:48 51°14.457 2°54.558 11.8 111 0.7 103070 70
2005-01-26 07:47:53 51°14.457 2°54.53 10.7 122 0.7 103070 68
2005-01-26 07:47:58 51°14.454 2°54.497 9.1 134 0.7 103070 68
2005-01-26 07:48:03 51°14.453 2°54.469 10 120 0.7 103070 67
2005-01-26 07:48:08 51°14.449 2°54.438 8.7 125 0.7 103070 67
2005-01-26 07:48:13 51°14.445 2°54.407 9.9 119 0.6 103060 67
2005-01-26 07:48:18 51°14.44 2°54.373 8.6 134 0.6 103060 67
2005-01-26 07:48:23 51°14.436 2°54.346 9.2 134 0.7 103070 67
2005-01-26 07:48:27 51°14.43 2°54.319 9.6 44 0.7 103070 67
2005-01-26 07:48:33 51°14.423 2°54.283 9 138 0.7 103080 68
2005-01-26 07:48:38 51°14.415 2°54.255 7.3 153 0.7 103080 68
2005-01-26 07:48:43 51°14.41 2°54.228 8.2 144 0.7 103070 68
2005-01-26 07:48:48 51°14.4 2°54.198 7.2 148 0.7 103070 68
2005-01-26 07:48:53 51°14.393 2°54.168 7.6 148 0.7 103080 67
2005-01-26 07:48:58 51°14.383 2°54.138 8.6 149 0.7 103080 67
2005-01-26 07:49:03 51°14.376 2°54.112 7.2 160 0.7 103070 68
2005-01-26 07:49:08 51°14.363 2°54.081 7.2 154 0.7 103070 68
2005-01-26 07:49:12 51°14.356 2°54.059 6.2 177 0.7 103080 68
2005-01-26 07:49:18 51°14.343 2°54.03 4.8 154 0.7 103080 68
2005-01-26 07:49:23 51°14.331 2°54.004 3.4 173 0.7 103090 69
2005-01-26 07:49:28 51°14.319 2°53.974 5.7 178 0.7 103090 69
2005-01-26 07:49:33 51°14.307 2°53.951 4.7 175 0.7 103090 68
2005-01-26 07:49:38 51°14.295 2°53.922 4.5 187 0.7 103090 68
2005-01-26 07:49:43 51°14.283 2°53.899 5.3 176 0.8 103100 69
2005-01-26 07:49:48 51°14.271 2°53.87 8.3 171 0.8 103100 69
2005-01-26 07:49:53 51°14.26 2°53.847 4.5 171 0.8 103100 69
2005-01-26 07:49:58 51°14.249 2°53.819 5.6 163 0.8 103100 69
2005-01-26 07:50:03 51°14.238 2°53.792 6.1 170 0.9 103100 70
2005-01-26 07:50:08 51°14.229 2°53.76 7.3 155 0.9 103100 70
2005-01-26 07:50:12 51°14.222 2°53.737 7.3 159 0.9 103100 69
2005-01-26 07:50:18 51°14.212 2°53.705 7.8 150 0.9 103100 69
2005-01-26 07:50:23 51°14.201 2°53.675 5.7 162 0.9 103100 69
2005-01-26 07:50:28 51°14.194 2°53.645 5.4 147 0.9 103100 69
2005-01-26 07:50:33 51°14.185 2°53.618 7.8 155 0.9 103140 68
2005-01-26 07:50:38 51°14.175 2°53.587 7 166 0.9 103140 68
2005-01-26 07:50:43 51°14.166 2°53.558 6.7 168 0.9 103100 67
2005-01-26 07:50:47 51°14.158 2°53.538 7.4 157 0.9 103100 67
2005-01-26 07:50:53 51°14.147 2°53.504 5.5 170 0.9 103110 67
2005-01-26 07:50:58 51°14.135 2°53.473 5.2 164 0.9 103110 67
2005-01-26 07:51:03 51°14.125 2°53.449 4.3 185 0.9 103100 67
2005-01-26 07:51:08 51°14.113 2°53.421 5.2 152 0.9 103100 67
2005-01-26 07:51:13 51°14.102 2°53.393 3.8 162 0.9 103100 67
2005-01-26 07:51:18 51°14.09 2°53.363 5.8 162 0.9 103100 67
2005-01-26 07:51:23 51°14.08 2°53.338 5.8 149 1 103110 68
2005-01-26 07:51:28 51°14.069 2°53.306 5.9 148 1 103110 68
2005-01-26 07:51:33 51°14.061 2°53.279 6.2 133 1 103110 69
2005-01-26 07:51:38 51°14.052 2°53.249 7.8 144 1 103110 69
2005-01-26 07:51:43 51°14.043 2°53.219 7.1 146 1 103110 70
2005-01-26 07:51:47 51°14.036 2°53.191 6.9 151 1 103110 70
2005-01-26 07:51:53 51°14.027 2°53.157 8.1 147 1.1 103110 70
2005-01-26 07:51:58 51°14.017 2°53.125 7.1 169 1.1 103110 70
2005-01-26 07:52:03 51°14.009 2°53.097 6.4 159 1.1 103100 70
2005-01-26 07:52:08 51°13.998 2°53.066 6.4 146 1.1 103100 70
2005-01-26 07:52:12 51°13.991 2°53.042 6.7 156 1.1 103100 68
2005-01-26 07:52:18 51°13.978 2°53.007 6.1 163 1.1 103100 68
2005-01-26 07:52:23 51°13.967 2°52.983 4.3 182 1 103100 67
2005-01-26 07:52:28 51°13.955 2°52.951 5 157 1 103100 67
2005-01-26 07:52:33 51°13.944 2°52.926 3.2 181 1 103110 67
2005-01-26 07:52:38 51°13.932 2°52.895 6.5 177 1 103110 67
2005-01-26 07:52:43 51°13.919 2°52.867 5.9 181 0.9 103100 66
2005-01-26 07:52:47 51°13.913 2°52.846 5.7 166 0.9 103100 66
2005-01-26 07:52:53 51°13.898 2°52.809 6.9 170 0.9 103110 67
2005-01-26 07:52:58 51°13.888 2°52.779 5.9 180 0.9 103110 67
2005-01-26 07:53:03 51°13.877 2°52.752 6.2 164 1 103110 68
2005-01-26 07:53:08 51°13.868 2°52.722 6.6 172 1 103110 68
2005-01-26 07:53:13 51°13.856 2°52.693 5.8 165 1 103110 67
2005-01-26 07:53:18 51°13.844 2°52.662 5.8 170 1 103110 67
2005-01-26 07:53:23 51°13.833 2°52.633 6.3 174 1 103110 66
2005-01-26 07:53:27 51°13.825 2°52.613 7.2 171 1 103110 66
2005-01-26 07:53:32 51°13.812 2°52.58 7.3 165 0.9 103110 65
2005-01-26 07:53:38 51°13.799 2°52.547 6.6 190 0.9 103110 65
2005-01-26 07:53:43 51°13.788 2°52.523 6.9 174 0.9 103120 66
2005-01-26 07:53:48 51°13.775 2°52.491 6.6 161 0.9 103120 66
2005-01-26 07:53:52 51°13.766 2°52.467 6.8 169 0.9 103110 65
2005-01-26 07:53:58 51°13.754 2°52.436 7.5 151 0.9 103110 65
2005-01-26 07:54:03 51°13.741 2°52.404 5.7 157 0.9 103110 66
2005-01-26 07:54:08 51°13.731 2°52.373 5.8 145 0.9 103110 66
2005-01-26 07:54:12 51°13.723 2°52.35 4.9 152 0.9 103110 65
2005-01-26 07:54:18 51°13.712 2°52.316 9.5 149 0.9 103110 65
2005-01-26 07:54:23 51°13.704 2°52.287 8.3 158 0.9 103110 66
2005-01-26 07:54:28 51°13.692 2°52.254 8.1 148 0.9 103110 66
2005-01-26 07:54:33 51°13.684 2°52.226 5.3 165 0.9 103100 67
2005-01-26 07:54:38 51°13.673 2°52.192 6 136 0.9 103100 67
2005-01-26 07:54:43 51°13.666 2°52.163 8.5 147 0.9 103100 68
2005-01-26 07:54:48 51°13.655 2°52.131 7.4 154 0.9 103100 68
2005-01-26 07:54:53 51°13.649 2°52.098 8.8 147 0.9 103100 66
2005-01-26 07:54:58 51°13.637 2°52.07 9.8 153 0.9 103100 66
2005-01-26 07:55:03 51°13.63 2°52.041 7.2 150 0.9 103100 67
2005-01-26 07:55:07 51°13.62 2°52.015 8.3 158 0.9 103100 67
2005-01-26 07:55:13 51°13.607 2°51.981 7.9 169 0.9 103100 67
2005-01-26 07:55:18 51°13.596 2°51.952 7.4 158 0.9 103100 67
2005-01-26 07:55:23 51°13.587 2°51.925 7.8 157 0.9 103100 67
2005-01-26 07:55:28 51°13.576 2°51.897 6.3 159 0.9 103100 67
2005-01-26 07:55:33 51°13.566 2°51.866 8.3 139 0.9 103100 66
2005-01-26 07:55:38 51°13.555 2°51.833 8.6 153 0.9 103100 66
2005-01-26 07:55:43 51°13.546 2°51.807 7.6 153 0.9 103110 65
2005-01-26 07:55:48 51°13.535 2°51.774 8.2 149 0.9 103110 65
2005-01-26 07:55:52 51°13.527 2°51.749 7.9 148 0.9 103110 67
2005-01-26 07:55:58 51°13.516 2°51.716 8.6 142 0.9 103110 67
2005-01-26 07:56:03 51°13.507 2°51.686 8.6 146 0.9 103100 66
2005-01-26 07:56:08 51°13.495 2°51.654 6.9 148 0.9 103100 66
2005-01-26 07:56:12 51°13.487 2°51.63 7.9 152 0.9 103100 65
2005-01-26 07:56:18 51°13.475 2°51.593 6.2 167 0.9 103100 65
2005-01-26 07:56:23 51°13.467 2°51.566 6.8 141 0.9 103110 66
2005-01-26 07:56:28 51°13.455 2°51.538 8 151 0.9 103110 66
2005-01-26 07:56:33 51°13.446 2°51.506 8.1 152 0.9 103110 66
2005-01-26 07:56:38 51°13.434 2°51.475 7.7 146 0.9 103110 66
2005-01-26 07:56:43 51°13.425 2°51.447 9.4 156 0.9 103110 66
2005-01-26 07:56:48 51°13.414 2°51.415 8.3 162 0.9 103110 66
2005-01-26 07:56:53 51°13.405 2°51.388 7.1 152 0.9 103110 66
2005-01-26 07:56:58 51°13.395 2°51.358 7.2 157 0.9 103110 66
2005-01-26 07:57:03 51°13.386 2°51.328 7.2 161 0.9 103110 65
2005-01-26 07:57:08 51°13.374 2°51.295 6.3 141 0.9 103110 65
2005-01-26 07:57:13 51°13.366 2°51.266 7.4 158 0.9 103110 65
2005-01-26 07:57:18 51°13.354 2°51.235 7.5 157 0.9 103110 65
2005-01-26 07:57:23 51°13.345 2°51.209 6.5 168 0.9 103110 65
2005-01-26 07:57:28 51°13.334 2°51.178 6.5 154 0.9 103110 65
2005-01-26 07:57:33 51°13.323 2°51.15 6.1 154 0.9 103120 65
2005-01-26 07:57:38 51°13.311 2°51.117 4.5 157 0.9 103120 65
2005-01-26 07:57:43 51°13.301 2°51.09 7 149 0.8 103110 66
2005-01-26 07:57:48 51°13.289 2°51.058 8.8 157 0.8 103110 66
2005-01-26 07:57:53 51°13.279 2°51.031 7.7 158 0.9 103110 67
2005-01-26 07:57:58 51°13.267 2°50.999 8.7 159 0.9 103110 67
2005-01-26 07:58:03 51°13.257 2°50.976 6.9 165 0.9 103110 68
2005-01-26 07:58:08 51°13.244 2°50.942 6.9 167 0.9 103110 68
2005-01-26 07:58:12 51°13.235 2°50.918 6.6 162 0.9 103110 66
2005-01-26 07:58:18 51°13.222 2°50.887 7.3 172 0.9 103110 66
2005-01-26 07:58:23 51°13.21 2°50.86 6.8 169 0.8 103120 65
2005-01-26 07:58:28 51°13.197 2°50.83 8.5 168 0.8 103120 65
2005-01-26 07:58:33 51°13.186 2°50.801 8.5 170 0.9 103120 66
2005-01-26 07:58:38 51°13.174 2°50.77 6.9 165 0.9 103120 66
2005-01-26 07:58:43 51°13.164 2°50.742 6.5 148 0.9 103120 66
2005-01-26 07:58:48 51°13.152 2°50.709 8.5 152 0.9 103120 66
2005-01-26 07:58:52 51°13.143 2°50.685 7.3 154 0.8 103120 65
2005-01-26 07:58:58 51°13.132 2°50.648 6.8 165 0.8 103120 65
2005-01-26 07:59:03 51°13.123 2°50.621 8.2 159 0.9 103120 65
2005-01-26 07:59:08 51°13.111 2°50.588 6.2 171 0.9 103120 65
2005-01-26 07:59:12 51°13.102 2°50.564 6.6 165 0.9 103110 66
2005-01-26 07:59:18 51°13.09 2°50.528 6.5 157 0.9 103110 66
2005-01-26 07:59:23 51°13.079 2°50.501 5.7 150 0.8 103120 65
2005-01-26 07:59:28 51°13.069 2°50.466 6.4 150 0.8 103120 65
2005-01-26 07:59:33 51°13.058 2°50.435 4.8 163 0.8 103120 64
2005-01-26 07:59:38 51°13.049 2°50.404 6.9 161 0.8 103120 64
2005-01-26 07:59:43 51°13.04 2°50.376 8.2 165 0.8 103120 65
2005-01-26 07:59:48 51°13.03 2°50.345 7.9 158 0.8 103120 65
2005-01-26 07:59:52 51°13.022 2°50.317 7.6 160 0.9 103120 66
2005-01-26 07:59:58 51°13.009 2°50.281 8.6 164 0.9 103120 66
2005-01-26 08:00:03 51°12.999 2°50.253 7.3 156 0.9 103120 67
2005-01-26 08:00:08 51°12.988 2°50.219 7.9 157 0.9 103120 67
2005-01-26 08:00:12 51°12.979 2°50.195 6.2 153 0.9 103110 66
2005-01-26 08:00:18 51°12.966 2°50.158 7.7 137 0.9 103110 66
2005-01-26 08:00:23 51°12.955 2°50.132 4.8 171 0.9 103120 65
2005-01-26 08:00:28 51°12.942 2°50.099 6.4 159 0.9 103120 65
2005-01-26 08:00:32 51°12.933 2°50.074 4.9 148 0.9 103130 65
2005-01-26 08:00:38 51°12.92 2°50.039 7.6 161 0.9 103130 65
2005-01-26 08:00:43 51°12.908 2°50.009 7.6 153 0.9 103120 67
2005-01-26 08:00:47 51°12.901 2°49.987 5.4 176 0.9 103120 67
2005-01-26 08:00:53 51°12.885 2°49.949 6.1 170 0.9 103120 66
2005-01-26 08:00:58 51°12.874 2°49.923 6 163 0.9 103120 66
2005-01-26 08:01:03 51°12.864 2°49.893 7.8 165 0.9 103120 65
2005-01-26 08:01:08 51°12.851 2°49.861 6.7 153 0.9 103120 65
2005-01-26 08:01:13 51°12.841 2°49.833 5.3 174 0.9 103120 65
2005-01-26 08:01:18 51°12.828 2°49.8 7 152 0.9 103120 65
2005-01-26 08:01:23 51°12.818 2°49.773 7.5 149 0.9 103120 65
2005-01-26 08:01:28 51°12.807 2°49.74 7.3 151 0.9 103120 65
2005-01-26 08:01:33 51°12.796 2°49.71 6.4 147 0.9 103130 65
2005-01-26 08:01:38 51°12.786 2°49.679 7.1 152 0.9 103130 65
2005-01-26 08:01:43 51°12.777 2°49.651 7.2 147 0.9 103130 66
2005-01-26 08:01:48 51°12.767 2°49.621 5.7 140 0.9 103130 66
2005-01-26 08:01:53 51°12.755 2°49.591 4.8 162 0.9 103120 67
2005-01-26 08:01:58 51°12.745 2°49.557 8.2 157 0.9 103120 67
2005-01-26 08:02:03 51°12.735 2°49.531 5.5 174 0.9 103120 67
2005-01-26 08:02:08 51°12.723 2°49.497 8.7 161 0.9 103120 67
2005-01-26 08:02:13 51°12.711 2°49.472 5.2 177 0.9 103120 67
2005-01-26 08:02:18 51°12.702 2°49.436 6 147 0.9 103120 67
2005-01-26 08:02:23 51°12.691 2°49.41 7.1 161 0.9 103120 67
2005-01-26 08:02:28 51°12.681 2°49.379 5.6 172 0.9 103120 67
2005-01-26 08:02:32 51°12.672 2°49.351 7.6 166 0.9 103120 66
2005-01-26 08:02:38 51°12.66 2°49.315 5.9 184 0.9 103120 66
2005-01-26 08:02:43 51°12.651 2°49.287 6.4 151 0.9 103120 67
2005-01-26 08:02:48 51°12.638 2°49.254 6 154 0.9 103120 67
2005-01-26 08:02:52 51°12.63 2°49.229 4.1 170 0.9 103130 66
2005-01-26 08:02:58 51°12.617 2°49.193 3.6 185 0.9 103130 66
2005-01-26 08:03:03 51°12.607 2°49.167 4.5 173 0.9 103130 65
2005-01-26 08:03:08 51°12.594 2°49.136 3.7 155 0.9 103130 65
2005-01-26 08:03:12 51°12.585 2°49.111 5.9 165 0.9 103120 66
2005-01-26 08:03:18 51°12.572 2°49.078 4.1 176 0.9 103120 66
2005-01-26 08:03:23 51°12.562 2°49.048 5.2 172 0.9 103120 66
2005-01-26 08:03:28 51°12.549 2°49.015 7.2 158 0.9 103120 66
2005-01-26 08:03:32 51°12.541 2°48.99 4.6 170 0.9 103120 67
2005-01-26 08:03:38 51°12.528 2°48.954 4.8 182 0.9 103120 67
2005-01-26 08:03:43 51°12.517 2°48.927 5.8 170 1 103120 67
2005-01-26 08:03:48 51°12.507 2°48.892 4.7 191 1 103120 67
2005-01-26 08:03:53 51°12.497 2°48.865 6.4 174 1 103120 66
2005-01-26 08:03:58 51°12.483 2°48.834 4.5 187 1 103120 66
2005-01-26 08:04:03 51°12.474 2°48.806 6.7 171 1 103120 67
2005-01-26 08:04:08 51°12.459 2°48.775 4.9 193 1 103120 67
2005-01-26 08:04:12 51°12.452 2°48.75 5.2 177 1.1 103120 67
2005-01-26 08:04:18 51°12.437 2°48.714 4.5 170 1.1 103120 67
2005-01-26 08:04:23 51°12.43 2°48.685 5.4 162 1.2 103120 68
2005-01-26 08:04:28 51°12.417 2°48.652 4 165 1.2 103120 68
2005-01-26 08:04:32 51°12.41 2°48.625 3.8 166 1.2 103120 67
2005-01-26 08:04:38 51°12.398 2°48.589 3.9 165 1.2 103120 67
2005-01-26 08:04:43 51°12.388 2°48.561 4.6 148 1.3 103120 68
2005-01-26 08:04:48 51°12.377 2°48.526 5.3 154 1.3 103120 68
2005-01-26 08:04:53 51°12.366 2°48.5 3.6 151 1.4 103120 68
2005-01-26 08:04:58 51°12.354 2°48.467 8.2 160 1.4 103120 68
2005-01-26 08:05:03 51°12.343 2°48.44 7.8 157 1.4 103120 69
2005-01-26 08:05:08 51°12.332 2°48.406 9.1 161 1.4 103120 69
2005-01-26 08:05:12 51°12.322 2°48.383 7.9 167 1.4 103120 69
2005-01-26 08:05:18 51°12.309 2°48.347 8 182 1.4 103120 69
2005-01-26 08:05:23 51°12.299 2°48.319 7.2 175 1.4 103120 67
2005-01-26 08:05:28 51°12.287 2°48.286 7.6 176 1.4 103120 67
2005-01-26 08:05:33 51°12.276 2°48.26 4.4 168 1.4 103120 65
2005-01-26 08:05:38 51°12.265 2°48.226 4.5 172 1.4 103120 65
2005-01-26 08:05:43 51°12.255 2°48.195 8.2 154 1.3 103130 64
2005-01-26 08:05:48 51°12.244 2°48.165 7.1 154 1.3 103130 64
2005-01-26 08:05:53 51°12.234 2°48.133 9.8 158 1.3 103130 64
2005-01-26 08:05:58 51°12.223 2°48.104 7.3 177 1.3 103130 64
2005-01-26 08:06:03 51°12.214 2°48.076 7.7 169 1.3 103130 64
2005-01-26 08:06:08 51°12.201 2°48.043 7.9 165 1.3 103130 64
2005-01-26 08:06:12 51°12.192 2°48.018 7.9 157 1.2 103130 63
2005-01-26 08:06:18 51°12.182 2°47.983 7.4 169 1.2 103130 63
2005-01-26 08:06:23 51°12.171 2°47.953 8.4 168 1.2 103130 62
2005-01-26 08:06:27 51°12.163 2°47.929 6.9 176 1.2 103130 62
2005-01-26 08:06:32 51°12.15 2°47.895 8.7 169 1.1 103130 62
2005-01-26 08:06:38 51°12.137 2°47.86 6.7 166 1.1 103130 62
2005-01-26 08:06:43 51°12.126 2°47.829 7.4 159 1.1 103130 61
2005-01-26 08:06:48 51°12.116 2°47.799 7.8 175 1.1 103130 61
2005-01-26 08:06:53 51°12.105 2°47.771 5.9 158 1.1 103130 62
2005-01-26 08:06:58 51°12.094 2°47.737 6.2 154 1.1 103130 62
2005-01-26 08:07:03 51°12.084 2°47.711 6.8 164 1 103130 62
2005-01-26 08:07:08 51°12.072 2°47.677 6.7 176 1 103130 62
2005-01-26 08:07:13 51°12.064 2°47.649 6.6 173 1 103130 61
2005-01-26 08:07:18 51°12.052 2°47.616 7.8 171 1 103130 61
2005-01-26 08:07:23 51°12.042 2°47.587 7.1 152 1 103130 63
2005-01-26 08:07:28 51°12.033 2°47.556 6.2 161 1 103130 63
2005-01-26 08:07:33 51°12.021 2°47.527 5.9 179 1 103130 63
2005-01-26 08:07:38 51°12.012 2°47.496 7.2 154 1 103130 63
2005-01-26 08:07:43 51°12 2°47.462 6.4 165 1 103130 64
2005-01-26 08:07:48 51°11.989 2°47.431 7 160 1 103130 64
2005-01-26 08:07:52 51°11.982 2°47.406 6.4 174 1 103140 65
2005-01-26 08:07:58 51°11.97 2°47.373 6.6 162 1 103140 65
2005-01-26 08:08:03 51°11.958 2°47.345 4.6 177 1 103130 64
2005-01-26 08:08:08 51°11.947 2°47.316 5.5 179 1 103130 64
2005-01-26 08:08:13 51°11.937 2°47.284 5.8 164 1 103130 64
2005-01-26 08:08:18 51°11.925 2°47.253 6.1 159 1 103130 64
2005-01-26 08:08:23 51°11.916 2°47.225 6.4 161 1 103130 63
2005-01-26 08:08:28 51°11.905 2°47.191 5.9 153 1 103130 63
2005-01-26 08:08:33 51°11.896 2°47.16 6.2 167 1 103140 65
2005-01-26 08:08:38 51°11.887 2°47.134 5.6 170 1 103140 65
2005-01-26 08:08:43 51°11.878 2°47.103 4.4 173 1.1 103130 65
2005-01-26 08:08:47 51°11.868 2°47.081 4 164 1.1 103130 65
2005-01-26 08:08:53 51°11.857 2°47.039 5.3 161 1.1 103130 64
2005-01-26 08:08:58 51°11.845 2°47.011 6.1 174 1.1 103130 64
2005-01-26 08:09:03 51°11.837 2°46.983 6.2 166 1.1 103130 66
2005-01-26 08:09:07 51°11.828 2°46.956 7.1 161 1.1 103130 66
2005-01-26 08:09:12 51°11.819 2°46.925 4.8 175 1.1 103130 66
2005-01-26 08:09:18 51°11.808 2°46.888 5.7 156 1.1 103130 66
2005-01-26 08:09:23 51°11.799 2°46.862 6.8 165 1.1 103130 65
2005-01-26 08:09:27 51°11.791 2°46.837 7.6 168 1.1 103130 65
2005-01-26 08:09:32 51°11.781 2°46.803 7.8 168 1.1 103130 65
2005-01-26 08:09:38 51°11.767 2°46.769 5.7 175 1.1 103130 65
2005-01-26 08:09:43 51°11.759 2°46.737 6.1 168 1.1 103130 65
2005-01-26 08:09:48 51°11.748 2°46.707 4.1 176 1.1 103130 65
2005-01-26 08:09:53 51°11.739 2°46.68 6.1 168 1.1 103130 63
2005-01-26 08:09:58 51°11.728 2°46.647 4.8 173 1.1 103130 63
2005-01-26 08:10:03 51°11.719 2°46.621 5.2 184 1.1 103130 63
2005-01-26 08:10:08 51°11.708 2°46.588 5.7 174 1.1 103130 63
2005-01-26 08:10:13 51°11.698 2°46.558 6.6 166 1.1 103130 64
2005-01-26 08:10:18 51°11.687 2°46.529 5.6 165 1.1 103130 64
2005-01-26 08:10:23 51°11.679 2°46.5 5.9 158 1.1 103130 65
2005-01-26 08:10:28 51°11.67 2°46.47 7.2 154 1.1 103130 65
2005-01-26 08:10:33 51°11.661 2°46.44 6.4 172 1.1 103130 65
2005-01-26 08:10:38 51°11.65 2°46.411 6 180 1.1 103130 65
2005-01-26 08:10:43 51°11.641 2°46.38 6 173 1.1 103130 65
2005-01-26 08:10:48 51°11.631 2°46.347 6.2 175 1.1 103130 65
2005-01-26 08:10:53 51°11.622 2°46.32 4.1 183 1.1 103120 65
2005-01-26 08:10:58 51°11.612 2°46.289 4.7 188 1.1 103120 65
2005-01-26 08:11:03 51°11.604 2°46.259 5.9 180 1.1 103130 65
2005-01-26 08:11:08 51°11.594 2°46.23 4.2 197 1.1 103130 65
2005-01-26 08:11:13 51°11.583 2°46.196 2.7 189 1.1 103130 65
2005-01-26 08:11:18 51°11.573 2°46.167 3.3 202 1.1 103130 65
2005-01-26 08:11:23 51°11.564 2°46.142 4.2 173 1.2 103130 66
2005-01-26 08:11:28 51°11.552 2°46.109 4 177 1.2 103130 66
2005-01-26 08:11:33 51°11.544 2°46.081 5.8 162 1.2 103170 67
2005-01-26 08:11:38 51°11.533 2°46.049 4.2 161 1.2 103170 67
2005-01-26 08:11:43 51°11.523 2°46.019 4.6 169 1.3 103170 67
2005-01-26 08:11:47 51°11.517 2°45.998 5.3 166 1.3 103170 67
2005-01-26 08:11:52 51°11.506 2°45.965 5.3 156 1.4 103130 68
2005-01-26 08:11:58 51°11.494 2°45.93 5.1 157 1.4 103130 68
2005-01-26 08:12:03 51°11.484 2°45.9 5.3 151 1.5 103160 68
2005-01-26 08:12:08 51°11.476 2°45.868 6 147 1.5 103160 68
2005-01-26 08:12:12 51°11.469 2°45.844 5.9 157 1.5 103180 68
2005-01-26 08:12:18 51°11.459 2°45.812 5.2 147 1.5 103180 68
2005-01-26 08:12:23 51°11.451 2°45.78 5.8 135 1.5 103170 67
2005-01-26 08:12:28 51°11.443 2°45.747 7.1 -999 1.5 103170 67
2005-01-26 08:12:32 51°11.436 2°45.722 8.1 133 1.6 103170 68
2005-01-26 08:12:38 51°11.427 2°45.683 7.1 129 1.6 103170 68
2005-01-26 08:12:43 51°11.42 2°45.656 6.7 143 1.6 103130 68
2005-01-26 08:12:48 51°11.412 2°45.621 7.2 144 1.6 103130 68
2005-01-26 08:12:53 51°11.406 2°45.592 6.6 139 1.5 103130 67
2005-01-26 08:12:58 51°11.397 2°45.559 6.4 136 1.5 103130 67
2005-01-26 08:13:03 51°11.389 2°45.53 6.9 135 1.5 103130 66
2005-01-26 08:13:08 51°11.383 2°45.495 6 130 1.5 103130 66
2005-01-26 08:13:13 51°11.375 2°45.467 8.2 129 1.5 103130 64
2005-01-26 08:13:18 51°11.367 2°45.432 8.9 138 1.5 103130 64
2005-01-26 08:13:23 51°11.362 2°45.403 10.8 143 1.5 103130 65
2005-01-26 08:13:28 51°11.354 2°45.373 7.4 139 1.5 103130 65
2005-01-26 08:13:33 51°11.349 2°45.336 6.9 226 1.4 103120 66
2005-01-26 08:13:38 51°11.344 2°45.304 8.9 133 1.4 103120 66
2005-01-26 08:13:43 51°11.338 2°45.275 8.5 136 1.4 103120 65
2005-01-26 08:13:48 51°11.333 2°45.239 7.5 125 1.4 103120 65
2005-01-26 08:13:52 51°11.328 2°45.214 9 138 1.4 103120 65
2005-01-26 08:13:58 51°11.321 2°45.175 9.8 141 1.4 103120 65
2005-01-26 08:14:03 51°11.316 2°45.146 10.2 227 1.4 103120 66
2005-01-26 08:14:08 51°11.31 2°45.11 10.4 141 1.4 103120 66
2005-01-26 08:14:13 51°11.304 2°45.081 8.9 148 1.4 103120 67
2005-01-26 08:14:18 51°11.299 2°45.046 7.8 142 1.4 103120 67
2005-01-26 08:14:23 51°11.295 2°45.017 8.5 134 1.4 103130 66
2005-01-26 08:14:28 51°11.289 2°44.98 6.9 140 1.4 103130 66
2005-01-26 08:14:32 51°11.284 2°44.954 8.4 134 1.3 103120 64
2005-01-26 08:14:38 51°11.278 2°44.919 9 145 1.3 103120 64
2005-01-26 08:14:43 51°11.274 2°44.885 8.5 136 1.3 103120 63
2005-01-26 08:14:48 51°11.268 2°44.85 6.7 160 1.3 103120 63
2005-01-26 08:14:53 51°11.262 2°44.817 6.7 132 1.2 103130 65
2005-01-26 08:14:58 51°11.258 2°44.783 7.6 140 1.2 103130 65
2005-01-26 08:15:03 51°11.253 2°44.754 7.8 141 1.2 103130 65
2005-01-26 08:15:08 51°11.246 2°44.718 6 135 1.2 103130 65
2005-01-26 08:15:12 51°11.243 2°44.692 5.4 143 1.2 103120 65
2005-01-26 08:15:18 51°11.236 2°44.654 5.5 141 1.2 103120 65
2005-01-26 08:15:23 51°11.232 2°44.622 6.6 139 1.2 103120 65
2005-01-26 08:15:28 51°11.226 2°44.586 6.5 144 1.2 103120 65
2005-01-26 08:15:33 51°11.221 2°44.555 5.9 138 1.2 103120 66
2005-01-26 08:15:38 51°11.215 2°44.519 7 158 1.2 103120 66
2005-01-26 08:15:43 51°11.211 2°44.489 7.2 154 1.2 103130 67
2005-01-26 08:15:48 51°11.203 2°44.452 4.2 170 1.2 103130 67
2005-01-26 08:15:53 51°11.201 2°44.418 9 143 1.3 103120 68
2005-01-26 08:15:58 51°11.193 2°44.385 8.1 147 1.3 103120 68
2005-01-26 08:16:03 51°11.189 2°44.354 6.6 154 1.2 103120 66
2005-01-26 08:16:08 51°11.182 2°44.318 6.7 155 1.2 103120 66
2005-01-26 08:16:12 51°11.179 2°44.291 5 139 1.2 103130 66
2005-01-26 08:16:18 51°11.171 2°44.25 6.1 128 1.2 103130 66
2005-01-26 08:16:23 51°11.167 2°44.22 5.8 153 1.2 103120 66
2005-01-26 08:16:28 51°11.16 2°44.181 6.4 43 1.2 103120 66
2005-01-26 08:16:33 51°11.154 2°44.15 6.7 164 1.2 103130 66
2005-01-26 08:16:38 51°11.149 2°44.114 8.8 158 1.2 103130 66
2005-01-26 08:16:43 51°11.141 2°44.084 5.7 153 1.2 103120 66
2005-01-26 08:16:48 51°11.136 2°44.045 7.7 135 1.2 103120 66
2005-01-26 08:16:52 51°11.13 2°44.019 6.3 151 1.2 103120 67
2005-01-26 08:16:58 51°11.123 2°43.983 7.7 161 1.2 103120 67
2005-01-26 08:17:03 51°11.118 2°43.949 8.1 153 1.2 103130 66
2005-01-26 08:17:08 51°11.11 2°43.913 6 134 1.2 103130 66
2005-01-26 08:17:13 51°11.106 2°43.878 8.4 150 1.2 103130 67
2005-01-26 08:17:18 51°11.101 2°43.844 7.8 145 1.2 103130 67
2005-01-26 08:17:23 51°11.095 2°43.813 7.3 147 1.2 103130 66
2005-01-26 08:17:28 51°11.091 2°43.78 7.2 148 1.2 103130 66
2005-01-26 08:17:33 51°11.085 2°43.744 6.8 137 1.2 103130 66
2005-01-26 08:17:38 51°11.079 2°43.707 7.7 127 1.2 103130 66
2005-01-26 08:17:43 51°11.075 2°43.676 8.6 137 1.2 103120 66
2005-01-26 08:17:48 51°11.068 2°43.64 6 152 1.2 103120 66
2005-01-26 08:17:53 51°11.062 2°43.609 6.1 145 1.2 103130 67
2005-01-26 08:17:58 51°11.055 2°43.576 6.3 151 1.2 103130 67
2005-01-26 08:18:03 51°11.049 2°43.537 7.4 149 1.2 103130 67
2005-01-26 08:18:08 51°11.041 2°43.505 6.6 161 1.2 103130 67
2005-01-26 08:18:13 51°11.037 2°43.474 6.3 163 1.2 103120 67
2005-01-26 08:18:18 51°11.029 2°43.438 6.3 147 1.2 103120 67
2005-01-26 08:18:23 51°11.024 2°43.406 6.9 150 1.2 103130 67
2005-01-26 08:18:28 51°11.018 2°43.372 6.9 148 1.2 103130 67
2005-01-26 08:18:33 51°11.012 2°43.338 6.1 148 1.2 103130 66
2005-01-26 08:18:38 51°11.006 2°43.301 7 225 1.2 103130 66
2005-01-26 08:18:43 51°11 2°43.267 4.8 129 1.3 103130 66
2005-01-26 08:18:48 51°10.995 2°43.231 7.3 126 1.3 103130 66
2005-01-26 08:18:52 51°10.992 2°43.203 5.3 141 1.2 103130 67
2005-01-26 08:18:58 51°10.984 2°43.165 5.5 161 1.2 103130 67
2005-01-26 08:19:03 51°10.977 2°43.135 4.5 130 1.2 103130 67
2005-01-26 08:19:08 51°10.971 2°43.097 5.2 144 1.2 103130 67
2005-01-26 08:19:12 51°10.965 2°43.071 4.6 161 1.2 103130 67
2005-01-26 08:19:18 51°10.959 2°43.035 6 152 1.2 103130 67
2005-01-26 08:19:23 51°10.951 2°43.002 5.5 157 1.2 103130 68
2005-01-26 08:19:28 51°10.946 2°42.965 3.7 138 1.2 103130 68
2005-01-26 08:19:32 51°10.94 2°42.939 3.4 166 1.2 103130 68
2005-01-26 08:19:38 51°10.934 2°42.898 5.3 149 1.2 103130 68
2005-01-26 08:19:43 51°10.926 2°42.864 3.3 165 1.2 103130 68
2005-01-26 08:19:48 51°10.922 2°42.83 4.2 172 1.2 103130 68
2005-01-26 08:19:53 51°10.915 2°42.8 4.9 157 1.2 103130 69
2005-01-26 08:19:58 51°10.908 2°42.763 5.7 168 1.2 103130 69
2005-01-26 08:20:03 51°10.901 2°42.733 4.4 164 1.3 103140 69
2005-01-26 08:20:08 51°10.893 2°42.697 3.7 170 1.3 103140 69
2005-01-26 08:20:12 51°10.889 2°42.669 6.5 132 1.3 103140 69
2005-01-26 08:20:18 51°10.881 2°42.63 4.4 160 1.3 103140 69
2005-01-26 08:20:23 51°10.876 2°42.599 6.8 128 1.3 103130 69
2005-01-26 08:20:28 51°10.871 2°42.561 8.2 136 1.3 103130 69
2005-01-26 08:20:32 51°10.867 2°42.534 5.6 163 1.3 103140 69
2005-01-26 08:20:38 51°10.86 2°42.494 5.6 146 1.3 103140 69
2005-01-26 08:20:43 51°10.854 2°42.464 6 150 1.3 103130 69
2005-01-26 08:20:48 51°10.848 2°42.426 6 143 1.3 103130 69
2005-01-26 08:20:53 51°10.843 2°42.396 5.6 162 1.3 103130 68
2005-01-26 08:20:58 51°10.836 2°42.359 7.1 145 1.3 103130 68
2005-01-26 08:21:03 51°10.831 2°42.327 6.2 148 1.3 103140 68
2005-01-26 08:21:08 51°10.824 2°42.291 6.3 118 1.3 103140 68
2005-01-26 08:21:12 51°10.821 2°42.263 6.8 151 1.4 103140 68
2005-01-26 08:21:18 51°10.814 2°42.222 7.2 149 1.4 103140 68
2005-01-26 08:21:23 51°10.811 2°42.191 4.9 149 1.3 103140 68
2005-01-26 08:21:28 51°10.804 2°42.155 3.9 124 1.3 103140 68
2005-01-26 08:21:33 51°10.799 2°42.121 5.8 122 1.3 103140 68
2005-01-26 08:21:38 51°10.793 2°42.084 4.5 134 1.3 103140 68
2005-01-26 08:21:43 51°10.788 2°42.054 5.7 131 1.3 103140 68
2005-01-26 08:21:48 51°10.78 2°42.017 4.9 125 1.3 103140 68
2005-01-26 08:21:53 51°10.773 2°41.983 7.5 127 1.3 103130 69
2005-01-26 08:21:58 51°10.767 2°41.949 5.8 132 1.3 103130 69
2005-01-26 08:22:03 51°10.762 2°41.919 4.6 135 1.4 103130 69
2005-01-26 08:22:08 51°10.755 2°41.881 5.6 142 1.4 103130 69
2005-01-26 08:22:13 51°10.749 2°41.847 5.5 139 1.4 103130 69
2005-01-26 08:22:18 51°10.744 2°41.813 5.1 133 1.4 103130 69
2005-01-26 08:22:23 51°10.737 2°41.782 3.7 129 1.4 103130 68
2005-01-26 08:22:28 51°10.732 2°41.743 5.3 109 1.4 103130 68
2005-01-26 08:22:33 51°10.725 2°41.711 7 124 1.3 103130 67
2005-01-26 08:22:38 51°10.72 2°41.674 8.3 131 1.3 103130 67
2005-01-26 08:22:43 51°10.714 2°41.644 7.8 129 1.3 103140 68
2005-01-26 08:22:48 51°10.706 2°41.607 7.7 142 1.3 103140 68
2005-01-26 08:22:53 51°10.701 2°41.575 9.4 131 1.4 103130 69
2005-01-26 08:22:58 51°10.694 2°41.538 8.7 130 1.4 103130 69
2005-01-26 08:23:03 51°10.69 2°41.508 7.7 143 1.4 103130 68
2005-01-26 08:23:08 51°10.684 2°41.475 8.5 134 1.4 103130 68
2005-01-26 08:23:12 51°10.678 2°41.443 6 142 1.3 103120 68
2005-01-26 08:23:18 51°10.673 2°41.401 6.3 145 1.3 103120 68
2005-01-26 08:23:23 51°10.666 2°41.368 5.3 138 1.4 103120 68
2005-01-26 08:23:28 51°10.662 2°41.332 6.5 127 1.4 103120 68
2005-01-26 08:23:32 51°10.657 2°41.304 6.5 139 1.3 103120 68
2005-01-26 08:23:38 51°10.653 2°41.263 8.5 227 1.3 103120 68
2005-01-26 08:23:43 51°10.646 2°41.232 7.5 134 1.3 103130 69
2005-01-26 08:23:48 51°10.642 2°41.194 9.6 147 1.3 103130 69
2005-01-26 08:23:53 51°10.635 2°41.161 4.9 142 1.4 103130 70
2005-01-26 08:23:58 51°10.63 2°41.125 6.7 154 1.4 103130 70
2005-01-26 08:24:03 51°10.624 2°41.095 8.6 148 1.4 103130 69
2005-01-26 08:24:08 51°10.617 2°41.059 6.5 159 1.4 103130 69
2005-01-26 08:24:12 51°10.611 2°41.032 8.3 145 1.4 103130 67
2005-01-26 08:24:18 51°10.605 2°40.991 5.9 159 1.4 103130 67
2005-01-26 08:24:23 51°10.6 2°40.957 5.8 151 1.3 103130 66
2005-01-26 08:24:28 51°10.593 2°40.924 5.3 -999 1.3 103130 66
2005-01-26 08:24:32 51°10.589 2°40.897 5.8 163 1.3 103130 66
2005-01-26 08:24:38 51°10.583 2°40.859 6.6 156 1.3 103130 66
2005-01-26 08:24:43 51°10.577 2°40.826 7 139 1.2 103140 64
2005-01-26 08:24:48 51°10.572 2°40.789 6.5 148 1.2 103140 64
2005-01-26 08:24:52 51°10.568 2°40.762 6.7 154 1.2 103130 65
2005-01-26 08:24:58 51°10.562 2°40.721 5.4 174 1.2 103130 65
2005-01-26 08:25:03 51°10.557 2°40.687 5.8 139 1.2 103130 65
2005-01-26 08:25:08 51°10.551 2°40.653 3.4 152 1.2 103130 65
2005-01-26 08:25:13 51°10.546 2°40.623 5.2 132 1.2 103140 66
2005-01-26 08:25:18 51°10.538 2°40.587 4.9 143 1.2 103140 66
2005-01-26 08:25:23 51°10.535 2°40.556 4.9 145 1.2 103130 67
2005-01-26 08:25:28 51°10.528 2°40.52 3.2 167 1.2 103130 67
2005-01-26 08:25:33 51°10.524 2°40.49 4.5 136 1.2 103130 69
2005-01-26 08:25:38 51°10.515 2°40.455 3.8 145 1.2 103130 69
2005-01-26 08:25:43 51°10.511 2°40.424 3.9 142 1.3 103130 69
2005-01-26 08:25:48 51°10.505 2°40.387 5 172 1.3 103130 69
2005-01-26 08:25:52 51°10.5 2°40.361 4.2 136 1.3 103140 70
2005-01-26 08:25:58 51°10.494 2°40.32 5.5 149 1.3 103140 70
2005-01-26 08:26:03 51°10.489 2°40.291 4.6 151 1.4 103130 70
2005-01-26 08:26:08 51°10.482 2°40.255 3 149 1.4 103130 70
2005-01-26 08:26:13 51°10.478 2°40.225 5.2 144 1.4 103140 69
2005-01-26 08:26:18 51°10.469 2°40.192 4 164 1.4 103140 69
2005-01-26 08:26:23 51°10.465 2°40.162 4.2 152 1.4 103140 69
2005-01-26 08:26:28 51°10.459 2°40.13 2.8 176 1.4 103140 69
2005-01-26 08:26:33 51°10.453 2°40.096 3.2 138 1.4 103140 69
2005-01-26 08:26:38 51°10.448 2°40.061 4.6 148 1.4 103140 69
2005-01-26 08:26:43 51°10.443 2°40.032 6.7 137 1.4 103140 70
2005-01-26 08:26:48 51°10.438 2°39.996 4.6 165 1.4 103140 70
2005-01-26 08:26:53 51°10.432 2°39.966 5.5 135 1.5 103140 70
2005-01-26 08:26:58 51°10.426 2°39.932 5 163 1.5 103140 70
2005-01-26 08:27:03 51°10.421 2°39.902 6.5 153 1.5 103130 69
2005-01-26 08:27:07 51°10.416 2°39.873 4.7 133 1.5 103130 69
2005-01-26 08:27:13 51°10.41 2°39.834 5.8 134 1.5 103170 69
2005-01-26 08:27:18 51°10.404 2°39.801 5.8 141 1.5 103170 69
2005-01-26 08:27:23 51°10.399 2°39.772 6.7 146 1.5 103170 69
2005-01-26 08:27:28 51°10.395 2°39.736 6.1 138 1.5 103170 69
2005-01-26 08:27:32 51°10.39 2°39.709 8 143 1.5 103180 69
2005-01-26 08:27:38 51°10.385 2°39.668 6.9 148 1.5 103180 69
2005-01-26 08:27:43 51°10.38 2°39.639 7.1 145 1.5 103190 68
2005-01-26 08:27:48 51°10.376 2°39.606 7.4 148 1.5 103190 68
2005-01-26 08:27:53 51°10.371 2°39.572 8.3 152 1.5 103130 68
2005-01-26 08:27:58 51°10.366 2°39.535 8.8 151 1.5 103130 68
2005-01-26 08:28:03 51°10.36 2°39.505 9.4 152 1.4 103140 67
2005-01-26 08:28:08 51°10.355 2°39.468 8.3 138 1.4 103140 67
2005-01-26 08:28:12 51°10.35 2°39.44 6.7 127 1.4 103140 66
2005-01-26 08:28:19 51°10.345 2°39.397 6 151 1.4 103140 66
2005-01-26 08:28:23 51°10.338 2°39.372 5.5 145 1.4 103140 66
2005-01-26 08:28:28 51°10.333 2°39.335 7.6 156 1.4 103140 66
2005-01-26 08:28:33 51°10.327 2°39.305 8.2 150 1.4 103140 67
2005-01-26 08:28:38 51°10.323 2°39.273 7.3 157 1.4 103140 67
2005-01-26 08:28:43 51°10.316 2°39.236 6.5 145 1.4 103140 68
2005-01-26 08:28:48 51°10.311 2°39.203 6.4 152 1.4 103140 68
2005-01-26 08:28:52 51°10.306 2°39.176 6.8 145 1.4 103140 67
2005-01-26 08:28:58 51°10.301 2°39.136 8.8 158 1.4 103140 67
2005-01-26 08:29:03 51°10.295 2°39.108 7.5 152 1.4 103140 68
2005-01-26 08:29:08 51°10.29 2°39.072 6.8 163 1.4 103140 68
2005-01-26 08:29:13 51°10.284 2°39.043 7.4 135 1.4 103140 68
2005-01-26 08:29:18 51°10.28 2°39.006 8.1 141 1.4 103140 68
2005-01-26 08:29:23 51°10.274 2°38.977 9.1 142 1.4 103140 66
2005-01-26 08:29:28 51°10.27 2°38.944 8.7 158 1.4 103140 66
2005-01-26 08:29:33 51°10.265 2°38.912 7.6 142 1.4 103140 66
2005-01-26 08:29:38 51°10.258 2°38.877 6.5 172 1.4 103140 66
2005-01-26 08:29:43 51°10.255 2°38.846 7.4 144 1.4 103140 66
2005-01-26 08:29:48 51°10.248 2°38.81 6.5 148 1.4 103140 66
2005-01-26 08:29:52 51°10.247 2°38.783 6.6 147 1.3 103140 65
2005-01-26 08:29:58 51°10.24 2°38.745 5.1 137 1.3 103140 65
2005-01-26 08:30:03 51°10.236 2°38.715 5.6 135 1.4 103140 67
2005-01-26 08:30:08 51°10.231 2°38.678 5 119 1.4 103140 67
2005-01-26 08:30:12 51°10.227 2°38.65 7.3 130 1.3 103140 66
2005-01-26 08:30:18 51°10.221 2°38.611 6.8 135 1.3 103140 66
2005-01-26 08:30:23 51°10.216 2°38.583 6.6 131 1.4 103150 67
2005-01-26 08:30:28 51°10.211 2°38.546 6.6 128 1.4 103150 67
2005-01-26 08:30:33 51°10.206 2°38.515 5.7 116 1.4 103140 67
2005-01-26 08:30:38 51°10.202 2°38.478 7.3 125 1.4 103140 67
2005-01-26 08:30:43 51°10.198 2°38.449 6.3 140 1.4 103140 66
2005-01-26 08:30:48 51°10.192 2°38.415 8.1 139 1.4 103140 66
2005-01-26 08:30:53 51°10.186 2°38.382 6.7 140 1.3 103140 66
2005-01-26 08:30:58 51°10.181 2°38.349 8 138 1.3 103140 66
2005-01-26 08:31:03 51°10.176 2°38.32 8 135 1.4 103140 67
2005-01-26 08:31:08 51°10.169 2°38.285 7.6 138 1.4 103140 67
2005-01-26 08:31:12 51°10.166 2°38.259 6.5 151 1.4 103140 66
2005-01-26 08:31:18 51°10.158 2°38.221 6.1 139 1.4 103140 66
2005-01-26 08:31:23 51°10.154 2°38.191 7.3 140 1.3 103140 65
2005-01-26 08:31:28 51°10.148 2°38.153 8.5 138 1.3 103140 65
2005-01-26 08:31:33 51°10.143 2°38.119 8.2 146 1.3 103130 65
2005-01-26 08:31:38 51°10.138 2°38.087 7.2 141 1.3 103130 65
2005-01-26 08:31:43 51°10.132 2°38.058 6.1 149 1.3 103140 66
2005-01-26 08:31:48 51°10.126 2°38.02 5.9 127 1.3 103140 66
2005-01-26 08:31:52 51°10.122 2°37.994 3.9 140 1.3 103140 64
2005-01-26 08:31:58 51°10.115 2°37.955 5.8 141 1.3 103140 64
2005-01-26 08:32:03 51°10.109 2°37.925 4.9 134 1.3 103140 65
2005-01-26 08:32:08 51°10.106 2°37.891 6.4 134 1.3 103140 65
2005-01-26 08:32:13 51°10.098 2°37.859 5.5 137 1.3 103140 66
2005-01-26 08:32:18 51°10.096 2°37.821 7.2 147 1.3 103140 66
2005-01-26 08:32:23 51°10.09 2°37.792 7.4 137 1.3 103130 66
2005-01-26 08:32:28 51°10.086 2°37.755 7.4 138 1.3 103130 66
2005-01-26 08:32:32 51°10.083 2°37.728 8.5 145 1.3 103130 67
2005-01-26 08:32:38 51°10.076 2°37.689 7.5 149 1.3 103130 67
2005-01-26 08:32:43 51°10.073 2°37.658 7.7 139 1.4 103130 67
2005-01-26 08:32:48 51°10.067 2°37.621 4.4 147 1.4 103130 67
2005-01-26 08:32:53 51°10.065 2°37.59 7.2 150 1.4 103130 67
2005-01-26 08:32:58 51°10.059 2°37.558 5.3 44 1.4 103130 67
2005-01-26 08:33:03 51°10.055 2°37.524 5.3 127 1.4 103130 66
2005-01-26 08:33:08 51°10.049 2°37.489 4.4 115 1.4 103130 66
2005-01-26 08:33:12 51°10.046 2°37.461 4.9 127 1.4 103130 67
2005-01-26 08:33:18 51°10.041 2°37.422 4.7 146 1.4 103130 67
2005-01-26 08:33:23 51°10.036 2°37.392 7 145 1.4 103130 68
2005-01-26 08:33:28 51°10.031 2°37.356 6.9 142 1.4 103130 68
2005-01-26 08:33:33 51°10.027 2°37.323 6.1 163 1.5 103130 68
2005-01-26 08:33:38 51°10.022 2°37.291 5.7 149 1.5 103130 68
2005-01-26 08:33:43 51°10.016 2°37.262 4.5 126 1.5 103130 68
2005-01-26 08:33:48 51°10.012 2°37.224 7.9 151 1.5 103130 68
2005-01-26 08:33:52 51°10.009 2°37.197 8.2 150 1.4 103130 67
2005-01-26 08:33:58 51°10.004 2°37.157 7.3 154 1.4 103130 67
2005-01-26 08:34:03 51°10.001 2°37.128 6.2 139 1.5 103130 67
2005-01-26 08:34:08 51°9.994 2°37.09 6.3 156 1.5 103130 67
2005-01-26 08:34:13 51°9.992 2°37.059 5.5 139 1.5 103120 67
2005-01-26 08:34:18 51°9.985 2°37.025 5.1 154 1.5 103120 67
2005-01-26 08:34:23 51°9.98 2°36.997 4.5 156 1.5 103120 67
2005-01-26 08:34:28 51°9.974 2°36.96 4.9 148 1.5 103120 67
2005-01-26 08:34:33 51°9.97 2°36.929 6.1 139 1.5 103120 67
2005-01-26 08:34:38 51°9.965 2°36.894 5.7 145 1.5 103120 67
2005-01-26 08:34:43 51°9.959 2°36.865 5.5 144 1.5 103120 68
2005-01-26 08:34:48 51°9.952 2°36.829 6 150 1.5 103120 68
2005-01-26 08:34:52 51°9.949 2°36.802 6.8 150 1.5 103130 68
2005-01-26 08:34:58 51°9.94 2°36.763 6.4 154 1.5 103130 68
2005-01-26 08:35:03 51°9.937 2°36.73 8.3 159 1.5 103120 68
2005-01-26 08:35:08 51°9.931 2°36.697 7.6 152 1.5 103120 68
2005-01-26 08:35:13 51°9.928 2°36.663 8.1 146 1.5 103120 68
2005-01-26 08:35:18 51°9.923 2°36.63 7.4 156 1.5 103120 68
2005-01-26 08:35:23 51°9.921 2°36.6 5.4 147 1.5 103130 68
2005-01-26 08:35:28 51°9.915 2°36.566 7.9 163 1.5 103130 68
2005-01-26 08:35:32 51°9.914 2°36.539 7.3 142 1.5 103120 68
2005-01-26 08:35:38 51°9.909 2°36.5 8 44 1.5 103120 68
2005-01-26 08:35:43 51°9.906 2°36.469 6.9 115 1.5 103120 68
2005-01-26 08:35:48 51°9.902 2°36.435 7.7 140 1.5 103120 68
2005-01-26 08:35:52 51°9.9 2°36.409 8.5 124 1.5 103120 68
2005-01-26 08:35:58 51°9.895 2°36.369 7.5 136 1.5 103120 68
2005-01-26 08:36:03 51°9.893 2°36.339 7.5 135 1.6 103120 69
2005-01-26 08:36:08 51°9.889 2°36.302 8.4 128 1.6 103120 69
2005-01-26 08:36:13 51°9.885 2°36.271 7.9 134 1.6 103120 69
2005-01-26 08:36:18 51°9.884 2°36.238 6.7 131 1.6 103120 69
2005-01-26 08:36:23 51°9.879 2°36.205 6.9 44 1.6 103110 68
2005-01-26 08:36:27 51°9.878 2°36.177 9.5 132 1.6 103110 68
2005-01-26 08:36:32 51°9.873 2°36.14 8 134 1.6 103120 68
2005-01-26 08:36:38 51°9.87 2°36.101 7.1 131 1.6 103120 68
2005-01-26 08:36:43 51°9.867 2°36.07 9.1 127 1.6 103120 68
2005-01-26 08:36:47 51°9.87 2°36.041 9.8 122 1.6 103120 68
2005-01-26 08:36:52 51°9.87 2°36.008 11.2 108 1.6 103110 67
2005-01-26 08:36:58 51°9.872 2°35.969 11.8 112 1.6 103110 67
2005-01-26 08:37:03 51°9.877 2°35.941 12.7 108 1.6 103110 67
2005-01-26 08:37:08 51°9.883 2°35.908 13.6 104 1.6 103110 67
2005-01-26 08:37:12 51°9.889 2°35.885 12.8 96 1.5 103100 66
2005-01-26 08:37:18 51°9.9 2°35.853 13.9 95 1.5 103100 66
2005-01-26 08:37:23 51°9.91 2°35.83 13.5 91 1.5 103090 65
2005-01-26 08:37:28 51°9.924 2°35.804 11 83 1.5 103090 65
2005-01-26 08:37:33 51°9.936 2°35.784 12.1 79 1.5 103090 65
2005-01-26 08:37:38 51°9.95 2°35.766 13.2 71 1.5 103090 65
2005-01-26 08:37:43 51°9.966 2°35.749 15.8 62 1.5 103070 66
2005-01-26 08:37:48 51°9.982 2°35.735 15.7 61 1.5 103070 66
2005-01-26 08:37:52 51°9.995 2°35.726 17.5 56 1.5 103080 66
2005-01-26 08:37:58 51°10.016 2°35.715 19.5 58 1.5 103080 66
2005-01-26 08:38:03 51°10.031 2°35.71 17.6 57 1.5 103060 66
2005-01-26 08:38:08 51°10.05 2°35.706 18.3 54 1.5 103060 66
2005-01-26 08:38:13 51°10.066 2°35.704 18.4 52 1.5 103050 66
2005-01-26 08:38:18 51°10.083 2°35.706 18.4 40 1.5 103050 66
2005-01-26 08:38:23 51°10.099 2°35.709 19.9 43 1.5 103060 66
2005-01-26 08:38:28 51°10.116 2°35.716 19.5 41 1.5 103060 66
2005-01-26 08:38:32 51°10.128 2°35.722 19.6 35 1.5 103040 66
2005-01-26 08:38:38 51°10.146 2°35.733 18.2 34 1.5 103040 66
2005-01-26 08:38:43 51°10.159 2°35.744 16.9 26 1.5 103040 65
2005-01-26 08:38:48 51°10.174 2°35.759 17.8 24 1.5 103040 65
2005-01-26 08:38:53 51°10.187 2°35.774 18.2 24 1.5 103050 65
2005-01-26 08:38:58 51°10.199 2°35.789 19.6 24 1.5 103050 65
2005-01-26 08:39:03 51°10.21 2°35.803 21.5 25 1.5 103040 66
2005-01-26 08:39:08 51°10.223 2°35.823 21.9 22 1.5 103040 66
2005-01-26 08:39:13 51°10.234 2°35.838 19.9 24 1.6 103050 67
2005-01-26 08:39:18 51°10.246 2°35.858 18.3 23 1.6 103050 67
2005-01-26 08:39:23 51°10.256 2°35.873 20.8 22 1.6 103080 68
2005-01-26 08:39:28 51°10.269 2°35.893 20 22 1.6 103080 68
2005-01-26 08:39:32 51°10.278 2°35.908 18.2 24 1.5 103040 66
2005-01-26 08:39:38 51°10.292 2°35.929 19.9 25 1.5 103040 66
2005-01-26 08:39:43 51°10.302 2°35.945 20.9 22 1.5 103050 65
2005-01-26 08:39:48 51°10.316 2°35.964 18.7 19 1.5 103050 65
2005-01-26 08:39:53 51°10.328 2°35.982 20.6 24 1.5 103060 66
2005-01-26 08:39:58 51°10.34 2°35.999 20.6 27 1.5 103060 66
2005-01-26 08:40:03 51°10.353 2°36.015 19.3 17 1.6 103070 66
2005-01-26 08:40:08 51°10.366 2°36.031 20.8 17 1.6 103070 66
2005-01-26 08:40:13 51°10.378 2°36.045 21.6 19 1.6 103060 67
2005-01-26 08:40:18 51°10.393 2°36.063 21.7 18 1.6 103060 67
2005-01-26 08:40:23 51°10.404 2°36.076 19.4 17 1.6 103050 66
2005-01-26 08:40:28 51°10.419 2°36.094 19.8 17 1.6 103050 66
2005-01-26 08:40:32 51°10.429 2°36.107 19.3 15 1.6 103080 67
2005-01-26 08:40:38 51°10.444 2°36.125 19.6 17 1.6 103080 67
2005-01-26 08:40:43 51°10.457 2°36.139 17.9 22 1.6 103070 65
2005-01-26 08:40:48 51°10.47 2°36.156 19 20 1.6 103070 65
2005-01-26 08:40:53 51°10.484 2°36.171 19.2 20 1.5 103080 65
2005-01-26 08:40:58 51°10.497 2°36.185 18.3 15 1.5 103080 65
2005-01-26 08:41:03 51°10.508 2°36.198 19.8 15 1.5 103070 65
2005-01-26 08:41:07 51°10.52 2°36.212 19.6 15 1.5 103070 65
2005-01-26 08:41:12 51°10.534 2°36.227 20.2 18 1.5 103070 65
2005-01-26 08:41:18 51°10.551 2°36.244 18.8 21 1.5 103070 65
2005-01-26 08:41:23 51°10.563 2°36.257 18.6 20 1.5 103080 66
2005-01-26 08:41:28 51°10.577 2°36.273 18.6 18 1.5 103080 66
2005-01-26 08:41:32 51°10.587 2°36.285 20.4 23 1.5 103070 66
2005-01-26 08:41:38 51°10.603 2°36.304 14.4 23 1.5 103070 66
2005-01-26 08:41:43 51°10.615 2°36.317 14.6 24 1.5 103080 66
2005-01-26 08:41:48 51°10.627 2°36.332 18.5 17 1.5 103080 66
2005-01-26 08:41:53 51°10.638 2°36.346 18.3 18 1.5 103060 66
2005-01-26 08:41:58 51°10.653 2°36.362 20.9 23 1.5 103060 66
2005-01-26 08:42:03 51°10.664 2°36.375 19.3 20 1.5 103080 69
2005-01-26 08:42:08 51°10.678 2°36.39 20.6 22 1.5 103080 69
2005-01-26 08:42:13 51°10.692 2°36.404 20.3 18 1.6 103060 70
2005-01-26 08:42:18 51°10.705 2°36.418 20 24 1.6 103060 70
2005-01-26 08:42:23 51°10.718 2°36.429 19.9 21 1.6 103080 70
2005-01-26 08:42:28 51°10.733 2°36.444 17.6 22 1.6 103080 70
2005-01-26 08:42:32 51°10.744 2°36.454 20.3 23 1.5 103070 71
2005-01-26 08:42:38 51°10.761 2°36.47 21.3 24 1.5 103070 71
2005-01-26 08:42:43 51°10.775 2°36.484 20 27 1.4 103070 71
2005-01-26 08:42:47 51°10.785 2°36.494 19.2 23 1.4 103070 71
2005-01-26 08:42:52 51°10.8 2°36.507 20.7 23 1.4 103070 72
2005-01-26 08:42:58 51°10.817 2°36.524 18.7 27 1.4 103070 72
2005-01-26 08:43:03 51°10.83 2°36.535 19.1 21 1.4 103070 72
2005-01-26 08:43:08 51°10.845 2°36.55 19.9 23 1.4 103070 72
2005-01-26 08:43:13 51°10.857 2°36.562 23 22 1.3 103040 71
2005-01-26 08:43:18 51°10.873 2°36.577 19.9 22 1.3 103040 71
2005-01-26 08:43:23 51°10.886 2°36.589 20.6 27 1.2 103070 72
2005-01-26 08:43:28 51°10.901 2°36.603 21.3 22 1.2 103070 72
2005-01-26 08:43:33 51°10.912 2°36.613 19.4 24 1.2 103050 72
2005-01-26 08:43:38 51°10.928 2°36.629 19 22 1.2 103050 72
2005-01-26 08:43:43 51°10.94 2°36.641 19.3 23 1.2 103070 72
2005-01-26 08:43:48 51°10.954 2°36.653 18.4 25 1.2 103070 72
2005-01-26 08:43:52 51°10.965 2°36.664 20.7 20 1.1 103060 72
2005-01-26 08:43:58 51°10.982 2°36.68 20 26 1.1 103060 72
2005-01-26 08:44:03 51°10.994 2°36.692 20.9 23 1.1 103070 73
2005-01-26 08:44:08 51°11.008 2°36.705 20.4 26 1.1 103070 73
2005-01-26 08:44:12 51°11.019 2°36.715 21.5 24 1.1 103070 73
2005-01-26 08:44:18 51°11.034 2°36.729 19.5 18 1.1 103070 73
2005-01-26 08:44:23 51°11.048 2°36.742 19.1 28 1.1 103070 73
2005-01-26 08:44:28 51°11.064 2°36.757 17.6 26 1.1 103070 73
2005-01-26 08:44:33 51°11.077 2°36.769 17.6 30 1 103060 73
2005-01-26 08:44:38 51°11.089 2°36.782 17.2 23 1 103060 73
2005-01-26 08:44:43 51°11.101 2°36.794 20.4 19 1 103060 73
2005-01-26 08:44:48 51°11.116 2°36.809 19.2 17 1 103060 73
2005-01-26 08:44:53 51°11.129 2°36.824 20.8 22 1 103050 73
2005-01-26 08:44:58 51°11.143 2°36.836 19.2 17 1 103050 73
2005-01-26 08:45:03 51°11.155 2°36.849 17.3 17 1 103050 73
2005-01-26 08:45:08 51°11.169 2°36.861 21.4 18 1 103050 73
2005-01-26 08:45:12 51°11.18 2°36.872 20.6 20 1 103080 72
2005-01-26 08:45:18 51°11.197 2°36.888 22.6 22 1 103080 72
2005-01-26 08:45:23 51°11.209 2°36.9 20.1 22 1 103080 72
2005-01-26 08:45:27 51°11.22 2°36.911 21.9 22 1 103080 72
2005-01-26 08:45:33 51°11.236 2°36.927 19.8 29 1.1 103080 73
2005-01-26 08:45:38 51°11.249 2°36.941 18.8 17 1.1 103080 73
2005-01-26 08:45:43 51°11.262 2°36.952 18 28 1.1 103080 73
2005-01-26 08:45:48 51°11.277 2°36.967 18.5 19 1.1 103080 73
2005-01-26 08:45:53 51°11.289 2°36.978 19.2 27 1.1 103050 72
2005-01-26 08:45:58 51°11.304 2°36.992 19.2 22 1.1 103050 72
2005-01-26 08:46:03 51°11.317 2°37.004 18.3 27 1.2 103050 72
2005-01-26 08:46:08 51°11.332 2°37.018 19.4 24 1.2 103050 72
2005-01-26 08:46:13 51°11.344 2°37.03 17.7 24 1.2 103080 72
2005-01-26 08:46:18 51°11.359 2°37.045 19.2 20 1.2 103080 72
2005-01-26 08:46:23 51°11.372 2°37.057 19.4 21 1.2 103060 71
2005-01-26 08:46:28 51°11.388 2°37.071 18.5 20 1.2 103060 71
2005-01-26 08:46:32 51°11.398 2°37.082 19.8 18 1.2 103080 70
2005-01-26 08:46:38 51°11.415 2°37.098 20.1 16 1.2 103080 70
2005-01-26 08:46:43 51°11.429 2°37.111 19.6 21 1.2 103070 71
2005-01-26 08:46:48 51°11.443 2°37.125 19.6 19 1.2 103070 71
2005-01-26 08:46:52 51°11.454 2°37.136 21 20 1.2 103080 71
2005-01-26 08:46:58 51°11.472 2°37.152 19.9 19 1.2 103080 71
2005-01-26 08:47:03 51°11.484 2°37.164 21.5 20 1.3 103080 71
2005-01-26 08:47:08 51°11.499 2°37.179 20.5 19 1.3 103080 71
2005-01-26 08:47:12 51°11.51 2°37.19 20.8 19 1.3 103060 71
2005-01-26 08:47:18 51°11.527 2°37.206 20.3 17 1.3 103060 71
2005-01-26 08:47:23 51°11.539 2°37.217 20.1 19 1.3 103070 71
2005-01-26 08:47:28 51°11.555 2°37.231 20.8 23 1.3 103070 71
2005-01-26 08:47:32 51°11.566 2°37.242 18.2 21 1.3 103080 71
2005-01-26 08:47:38 51°11.581 2°37.258 17.5 23 1.3 103080 71
2005-01-26 08:47:43 51°11.593 2°37.269 19.1 22 1.3 103080 71
2005-01-26 08:47:48 51°11.609 2°37.286 17.6 24 1.3 103080 71
2005-01-26 08:47:52 51°11.619 2°37.296 18.1 21 1.3 103080 71
2005-01-26 08:47:58 51°11.636 2°37.311 17.4 21 1.3 103080 71
2005-01-26 08:48:03 51°11.648 2°37.322 17.9 15 1.3 103080 71
2005-01-26 08:48:08 51°11.663 2°37.337 18.9 24 1.3 103080 71
2005-01-26 08:48:13 51°11.675 2°37.35 18.3 16 1.3 103080 71
2005-01-26 08:48:18 51°11.69 2°37.363 18.3 20 1.3 103080 71
2005-01-26 08:48:23 51°11.703 2°37.376 18.5 18 1.3 103080 71
2005-01-26 08:48:28 51°11.719 2°37.391 19.1 20 1.3 103080 71
2005-01-26 08:48:32 51°11.73 2°37.402 16.5 20 1.3 103080 71
2005-01-26 08:48:38 51°11.747 2°37.417 18.3 21 1.3 103080 71
2005-01-26 08:48:43 51°11.759 2°37.429 18.4 22 1.3 103090 71
2005-01-26 08:48:48 51°11.774 2°37.443 19.3 25 1.3 103090 71
2005-01-26 08:48:53 51°11.787 2°37.456 19.3 22 1.3 103080 69
2005-01-26 08:48:58 51°11.802 2°37.471 18.7 19 1.3 103080 69
2005-01-26 08:49:03 51°11.815 2°37.483 18.9 22 1.3 103060 69
2005-01-26 08:49:07 51°11.828 2°37.496 20.6 24 1.3 103060 69
2005-01-26 08:49:13 51°11.844 2°37.512 20 22 1.3 103090 70
2005-01-26 08:49:18 51°11.858 2°37.525 19.5 24 1.3 103090 70
2005-01-26 08:49:23 51°11.871 2°37.537 17.6 23 1.3 103070 69
2005-01-26 08:49:28 51°11.886 2°37.552 19 25 1.3 103070 69
2005-01-26 08:49:32 51°11.897 2°37.563 19.5 27 1.2 103070 69
2005-01-26 08:49:38 51°11.914 2°37.579 16.3 25 1.2 103070 69
2005-01-26 08:49:43 51°11.926 2°37.592 17.4 24 1.2 103080 68
2005-01-26 08:49:48 51°11.942 2°37.607 19.4 25 1.2 103080 68
2005-01-26 08:49:53 51°11.954 2°37.618 20.2 22 1.2 103080 69
2005-01-26 08:49:58 51°11.969 2°37.633 18.6 25 1.2 103080 69
2005-01-26 08:50:03 51°11.981 2°37.645 18.6 24 1.3 103090 70
2005-01-26 08:50:07 51°11.992 2°37.657 19.5 26 1.3 103090 70
2005-01-26 08:50:12 51°12.007 2°37.672 19.4 26 1.3 103080 70
2005-01-26 08:50:18 51°12.024 2°37.688 21.3 28 1.3 103080 70
2005-01-26 08:50:23 51°12.036 2°37.701 18.6 28 1.3 103080 69
2005-01-26 08:50:28 51°12.051 2°37.716 18.1 24 1.3 103080 69
2005-01-26 08:50:33 51°12.063 2°37.727 19.3 25 1.3 103070 70
2005-01-26 08:50:38 51°12.078 2°37.742 20.5 20 1.3 103070 70
2005-01-26 08:50:43 51°12.09 2°37.754 20.1 26 1.3 103070 70
2005-01-26 08:50:48 51°12.105 2°37.768 20.9 23 1.3 103070 70
2005-01-26 08:50:52 51°12.116 2°37.779 19.5 18 1.3 103070 70
2005-01-26 08:50:58 51°12.131 2°37.794 17.8 18 1.3 103070 70
2005-01-26 08:51:03 51°12.144 2°37.808 19 17 1.4 103080 70
2005-01-26 08:51:08 51°12.159 2°37.824 18.3 22 1.4 103080 70
2005-01-26 08:51:13 51°12.172 2°37.836 17.3 22 1.4 103050 70
2005-01-26 08:51:18 51°12.186 2°37.851 20.2 27 1.4 103050 70
2005-01-26 08:51:23 51°12.2 2°37.864 18.3 29 1.4 103070 70
2005-01-26 08:51:28 51°12.214 2°37.878 19.3 27 1.4 103070 70
2005-01-26 08:51:33 51°12.228 2°37.89 19.1 27 1.3 103090 69
2005-01-26 08:51:38 51°12.242 2°37.904 18.6 25 1.3 103090 69
2005-01-26 08:51:43 51°12.255 2°37.916 19.2 28 1.4 103070 69
2005-01-26 08:51:48 51°12.269 2°37.929 18.9 29 1.4 103070 69
2005-01-26 08:51:53 51°12.283 2°37.944 17.2 25 1.3 103070 68
2005-01-26 08:51:58 51°12.297 2°37.957 18 20 1.3 103070 68
2005-01-26 08:52:03 51°12.309 2°37.967 21.1 27 1.3 103050 68
2005-01-26 08:52:08 51°12.324 2°37.982 21.4 28 1.3 103050 68
2005-01-26 08:52:13 51°12.338 2°37.995 19.1 25 1.3 103050 68
2005-01-26 08:52:18 51°12.352 2°38.009 18.7 28 1.3 103050 68
2005-01-26 08:52:23 51°12.364 2°38.021 18.8 25 1.3 103100 68
2005-01-26 08:52:28 51°12.379 2°38.035 17.1 23 1.3 103100 68
2005-01-26 08:52:33 51°12.393 2°38.048 18.3 31 1.3 103070 67
2005-01-26 08:52:38 51°12.406 2°38.061 19.6 29 1.3 103070 67
2005-01-26 08:52:43 51°12.42 2°38.075 19.8 27 1.3 103080 68
2005-01-26 08:52:48 51°12.434 2°38.088 19.5 32 1.3 103080 68
2005-01-26 08:52:52 51°12.444 2°38.098 18.8 28 1.4 103070 68
2005-01-26 08:52:58 51°12.461 2°38.115 19.4 28 1.4 103070 68
2005-01-26 08:53:03 51°12.474 2°38.127 16.9 27 1.4 103070 69
2005-01-26 08:53:08 51°12.488 2°38.141 17.8 26 1.4 103070 69
2005-01-26 08:53:12 51°12.498 2°38.152 18 26 1.4 103080 68
2005-01-26 08:53:18 51°12.515 2°38.168 16.1 22 1.4 103080 68
2005-01-26 08:53:23 51°12.529 2°38.181 14.3 24 1.4 103100 68
2005-01-26 08:53:28 51°12.543 2°38.194 17.3 17 1.4 103100 68
2005-01-26 08:53:32 51°12.554 2°38.205 19.1 14 1.5 103100 69
2005-01-26 08:53:38 51°12.571 2°38.22 19.6 22 1.5 103100 69
2005-01-26 08:53:43 51°12.585 2°38.232 19.2 22 1.5 103080 70
2005-01-26 08:53:48 51°12.6 2°38.244 20.4 21 1.5 103080 70
2005-01-26 08:53:53 51°12.614 2°38.256 18.6 21 1.6 103100 71
2005-01-26 08:53:58 51°12.628 2°38.267 18.8 20 1.6 103100 71
2005-01-26 08:54:03 51°12.64 2°38.277 19.7 23 1.6 103090 69
2005-01-26 08:54:08 51°12.657 2°38.29 18.6 25 1.6 103090 69
2005-01-26 08:54:13 51°12.671 2°38.301 18.1 24 1.6 103090 68
2005-01-26 08:54:18 51°12.685 2°38.313 18.9 21 1.6 103090 68
2005-01-26 08:54:23 51°12.698 2°38.324 19.2 18 1.5 103070 69
2005-01-26 08:54:28 51°12.713 2°38.336 18.3 20 1.5 103070 69
2005-01-26 08:54:33 51°12.728 2°38.349 17.8 19 1.5 103090 68
2005-01-26 08:54:38 51°12.742 2°38.361 18.2 20 1.5 103090 68
2005-01-26 08:54:43 51°12.755 2°38.372 17.2 18 1.5 103090 69
2005-01-26 08:54:48 51°12.77 2°38.384 17.8 24 1.5 103090 69
2005-01-26 08:54:53 51°12.784 2°38.395 16.6 25 1.5 103080 68
2005-01-26 08:54:58 51°12.798 2°38.407 18.4 21 1.5 103080 68
2005-01-26 08:55:03 51°12.813 2°38.419 19.1 26 1.5 103110 68
2005-01-26 08:55:08 51°12.827 2°38.431 18.3 31 1.5 103110 68
2005-01-26 08:55:12 51°12.838 2°38.44 19.1 29 1.5 103080 69
2005-01-26 08:55:18 51°12.856 2°38.454 18 27 1.5 103080 69
2005-01-26 08:55:23 51°12.869 2°38.464 15.8 29 1.5 103090 69
2005-01-26 08:55:28 51°12.885 2°38.477 18 28 1.5 103090 69
2005-01-26 08:55:32 51°12.897 2°38.487 18.7 33 1.4 103070 68
2005-01-26 08:55:38 51°12.914 2°38.5 17 34 1.4 103070 68
2005-01-26 08:55:43 51°12.927 2°38.51 18.2 33 1.5 103080 68
2005-01-26 08:55:48 51°12.944 2°38.522 16.9 32 1.5 103080 68
2005-01-26 08:55:53 51°12.959 2°38.532 17.6 31 1.5 103090 69
2005-01-26 08:55:58 51°12.975 2°38.541 19.8 25 1.5 103090 69
2005-01-26 08:56:03 51°12.99 2°38.55 17.9 31 1.5 103080 69
2005-01-26 08:56:08 51°13.005 2°38.559 17.2 33 1.5 103080 69
2005-01-26 08:56:13 51°13.021 2°38.567 18.5 37 1.5 103090 70
2005-01-26 08:56:18 51°13.037 2°38.575 19.1 36 1.5 103090 70
2005-01-26 08:56:23 51°13.05 2°38.582 18.7 35 1.5 103100 70
2005-01-26 08:56:28 51°13.067 2°38.592 19 42 1.5 103100 70
2005-01-26 08:56:32 51°13.08 2°38.599 20.2 40 1.5 103060 69
2005-01-26 08:56:38 51°13.099 2°38.609 18.5 43 1.5 103060 69
2005-01-26 08:56:43 51°13.112 2°38.616 20.2 36 1.5 103060 68
2005-01-26 08:56:48 51°13.13 2°38.625 19 32 1.5 103060 68